User: anonymous   Login
Location: Krishnamma Banjar
(17.2175°N, 80.5166°E)
Time: 19:09:11
(UTC+00:00)
Language:

Meteor 2-5 Rocket - Orbit

View from above orbital plane
View from above orbital plane
View from above satellite
View from above satellite

Ground track
Ground track

The orbit data is extracted from the following two-line orbital elements,

1 11608U 79095B   24282.12709005  .00000238  00000-0  13514-3 0  9998
2 11608  81.2121 139.6870 0053456 220.9761 138.7386 14.06410337305077
Epoch (UTC): 08 October 2024 03:03:00
Eccentricity: 0.0053456
inclination: 81.2121°
perigee height: 833 km
apogee height: 910 km
right ascension of ascending node: 139.6870°
argument of perigee: 220.9761°
revolutions per day: 14.06410337
mean anomaly at epoch: 138.7386°
orbit number at epoch: 30507

The dashed part of the orbit path shows where the satellite is in the earth's shadow,  

DLR